Temperature
20 20 20 21 21 21 21 20 20 20 20 20 19 19 19 19 19 19 19 19 19 19 19 19 19 19 18 18 18 18 18 18 18 18 18 18 18 18 18 18 18 18 18
21 20 20 21 21 21 20 20 20 20 20 19 19 19 19 19 19 19 19 19 19 19 19 19 19 19 19 19 19 18 18 18 18 18 18 18 18 18 18 18 18 18 18
21 21 20 20 20 20 20 20 20 20 19 19 19 19 19 19 19 19 19 19 19 19 19 19 19 19 19 19 19 18 18 18 18 18 18 18 18 18 18 18 18 18 18
21 21 20 20 20 20 20 20 20 19 19 19 19 19 19 19 19 19 19 19 19 19 19 19 19 19 19 19 18 18 18 18 18 18 18 18 18 18 18 18 18 18 18
21 21 20 20 20 20 20 20 20 19 19 19 19 19 19 19 19 19 19 19 19 19 19 19 19 19 19 19 18 18 18 18 18 18 18 18 18 18 18 18 18 18 18
21 21 20 20 20 20 20 20 20 19 19 19 19 19 19 19 19 19 19 19 19 19 19 19 19 19 19 19 18 18 18 18 18 18 18 18 18 18 18 18 18 18 18
21 21 20 20 20 20 20 20 19 19 19 19 19 19 19 19 19 19 18 18 18 18 19 19 19 19 19 19 19 18 18 18 18 18 18 18 18 18 18 18 18 18 18
21 21 20 20 20 20 20 20 19 19 19 19 19 19 19 19 18 18 18 18 18 18 18 18 19 19 19 19 19 18 18 18 18 18 18 18 18 18 18 18 18 18 18
21 21 20 20 20 20 19 19 19 19 19 19 19 18 18 18 18 18 18 18 18 18 18 18 18 19 19 19 19 18 18 18 18 18 18 18 18 18 18 18 18 18 18
21 20 20 20 20 19 19 19 19 19 19 18 18 18 18 18 18 18 18 18 18 18 18 18 18 18 18 19 19 19 18 18 18 18 18 18 18 18 18 18 18 18 18
20 20 20 19 19 19 19 19 19 19 18 18 18 18 18 18 18 18 18 18 18 18 18 18 18 18 18 18 19 19 18 18 18 18 18 18 18 18 18 18 18 18 18
19 19 19 19 19 19 19 18 18 18 18 18 18 18 18 18 18 18 18 18 17 18 18 18 18 18 18 18 18 18 18 18 18 18 18 18 18 18 18 18 18 18 18
19 19 19 19 19 18 18 18 18 18 18 18 18 17 17 17 17 17 17 17 17 17 17 17 17 17 18 18 18 18 18 18 18 18 18 18 18 18 18 18 18 18 18
19 19 19 19 18 18 18 18 18 18 18 17 17 17 17 17 17 17 17 17 17 17 17 17 17 17 17 17 17 18 18 18 18 18 18 18 18 17 18 18 18 18 18
19 19 19 19 18 18 18 18 18 18 18 17 17 17 17 17 17 17 17 17 17 17 17 17 17 17 17 17 17 17 17 17 17 17 17 17 17 17 17 18 18 18 18
19 19 19 19 18 18 18 18 18 18 17 17 17 17 17 17 16 16 16 16 16 16 16 16 16 16 16 16 17 17 17 17 17 17 17 17 17 17 17 17 17 18 18
19 19 19 18 18 18 18 18 18 17 17 17 17 16 16 16 16 16 16 15 15 15 16 16 16 16 16 16 16 16 16 16 16 17 17 17 17 17 17 17 17 17 17
19 19 18 18 18 18 18 18 17 17 17 17 16 16 16 16 15 15 15 15 15 15 15 15 15 15 15 16 16 16 16 16 16 16 16 16 16 16 17 17 17 17 17
19 19 18 18 18 18 18 18 17 17 17 16 16 16 15 15 15 15 15 14 14 15 15 15 15 15 15 15 15 15 16 16 16 16 16 16 16 16 16 16 17 17 17
18 18 18 18 18 18 18 17 17 16 16 16 16 15 15 15 15 14 14 14 14 14 14 14 14 14 14 15 15 15 15 16 16 16 16 16 16 16 16 16 16 16 16
18 18 18 18 18 18 18 17 17 16 16 16 15 15 15 15 14 14 14 14 14 14 14 14 14 14 14 14 14 15 15 15 16 16 16 16 16 16 16 16 16 16 16
18 18 18 18 18 18 17 17 17 16 16 15 15 15 15 14 14 14 14 14 14 13 13 13 14 14 14 13 14 14 15 15 15 16 16 16 16 16 16 16 16 16 16
18 19 19 18 18 18 17 17 16 16 15 15 15 15 14 14 14 14 13 13 13 13 13 13 13 13 13 13 13 13 13 14 15 15 15 15 16 16 16 16 16 16 16
19 19 19 18 18 18 17 17 16 16 16 15 15 14 14 14 14 13 13 13 13 13 13 13 13 13 13 13 13 13 13 13 13 14 15 15 15 15 15 15 15 15 15
19 19 19 18 18 18 17 17 16 16 16 15 15 14 14 14 14 13 13 13 13 13 13 13 12 12 12 12 12 13 13 13 13 13 13 14 15 15 15 15 15 15 15
19 19 19 18 18 18 17 17 16 16 16 15 15 15 14 14 14 13 13 13 13 13 13 12 12 12 12 12 12 12 12 12 12 12 12 13 13 14 14 15 15 15 15
Wind_Speed
8 10 18 19 19 19 19 19 19 19 19 19 19 19 19 18 18 17 16 15 15 14 14 13 13 12 12 12 12 11 11 11 10 11 12 13 15 17 18 19 19 18 20
13 14 19 19 19 19 19 19 19 19 19 19 18 18 17 17 16 16 15 14 14 13 13 12 12 11 11 11 11 10 10 9 10 11 12 13 15 16 18 19 18 18 20
15 16 18 19 19 19 19 19 18 18 18 18 18 17 16 16 15 15 14 13 13 12 12 11 11 10 10 9 9 9 8 8 8 9 10 11 12 14 17 19 19 19 19
16 16 17 20 19 19 19 19 18 18 18 18 17 16 15 15 14 13 13 12 12 11 11 10 10 9 8 8 8 7 7 7 6 7 8 8 10 14 18 18 18 18 18
14 16 19 21 20 20 19 19 18 18 18 17 16 15 14 13 13 12 12 11 11 10 9 9 9 8 7 7 6 6 6 6 6 6 9 10 11 15 17 17 17 17 17
12 16 20 21 21 20 20 19 18 18 17 16 15 14 13 12 12 11 10 10 10 9 8 8 7 7 6 5 4 4 5 7 6 8 12 12 12 14 16 16 16 16 16
13 15 19 21 21 20 20 19 18 17 16 15 14 13 12 11 10 10 9 9 9 9 8 7 7 6 5 3 2 3 5 6 6 9 11 12 13 14 15 15 16 16 15
15 14 18 20 20 20 19 18 17 16 15 14 13 12 10 9 8 8 8 8 8 8 8 7 7 6 5 3 1 1 3 4 6 7 9 12 15 16 15 14 15 15 15
14 13 14 17 18 19 18 17 16 15 13 12 11 9 8 7 7 7 7 7 8 8 8 7 7 6 6 5 4 3 2 2 5 5 9 11 15 16 16 15 15 15 14
11 10 11 13 15 15 15 15 14 13 12 10 9 7 6 5 5 6 7 8 8 8 9 8 8 7 7 7 6 5 4 2 3 4 8 12 16 16 16 16 16 15 15
11 9 8 10 12 13 12 12 12 11 9 8 6 5 4 2 2 4 7 8 8 8 8 9 8 8 8 8 8 8 7 4 2 4 9 14 18 18 17 17 17 16 16
11 9 8 8 9 10 10 10 9 8 7 7 5 4 4 3 2 1 3 6 6 6 6 7 8 8 7 7 7 8 7 7 4 5 9 15 18 18 18 18 18 17 17
11 10 8 8 8 8 7 8 7 7 8 8 7 7 8 7 6 6 4 1 1 3 3 3 4 5 5 5 5 6 8 7 5 5 8 14 18 19 19 19 19 18 18
11 10 9 8 8 8 9 7 8 7 7 8 10 11 10 6 5 5 4 3 2 1 1 1 2 3 4 5 5 6 6 6 5 5 7 14 18 19 20 20 20 20 19
12 10 9 10 9 7 7 6 8 7 8 10 11 13 12 7 4 4 3 4 3 2 1 0 1 1 2 3 3 3 4 5 5 6 7 12 17 20 20 20 20 20 20
11 10 9 9 8 8 6 5 6 8 10 11 11 11 12 10 7 5 4 4 4 3 2 1 0 0 1 1 1 2 3 5 5 5 8 12 17 20 21 20 21 21 21
11 9 9 9 8 8 7 6 7 9 11 9 9 11 11 10 9 6 4 3 5 6 4 3 3 3 2 2 2 2 2 3 5 5 7 11 15 20 23 23 22 22 22
11 10 9 10 9 8 6 6 7 9 10 9 9 10 11 11 10 8 4 4 7 7 5 3 3 3 3 3 2 3 2 2 4 6 7 9 12 15 19 22 22 23 22
11 9 8 9 8 8 6 6 6 7 8 8 9 8 9 10 10 8 5 5 8 6 4 4 4 3 3 3 3 3 3 3 4 6 5 7 10 13 15 18 22 23 23
9 9 9 8 7 7 6 5 4 5 4 6 6 7 8 8 9 9 6 7 8 5 5 4 4 4 2 3 3 4 4 4 3 4 5 6 8 11 13 14 16 19 24
10 9 8 8 7 6 4 4 3 3 3 2 3 6 7 7 8 8 5 5 5 5 5 5 3 4 4 4 4 4 5 3 3 3 3 3 4 7 8 11 12 13 14
10 10 9 8 7 6 4 4 3 3 2 3 3 4 6 6 6 6 5 3 4 4 6 6 5 3 4 4 3 2 4 6 4 4 4 3 3 3 4 6 9 10 12
10 11 11 9 8 7 6 3 3 4 3 3 2 2 3 5 5 6 5 4 3 4 4 4 4 4 3 3 3 3 2 2 4 4 4 5 6 4 3 3 4 7 9
12 11 10 10 9 7 7 6 5 4 3 3 3 3 2 3 4 6 6 5 3 3 3 2 3 3 3 3 3 2 1 2 0 4 5 5 6 5 5 3 3 4 6
13 11 10 10 9 8 7 8 7 5 4 3 3 3 1 1 3 5 7 5 3 2 3 2 2 2 2 1 1 1 2 2 2 1 3 5 6 5 5 5 4 5 6
11 11 10 10 9 9 9 8 8 8 6 5 3 2 1 1 1 3 6 6 4 3 3 2 1 1 0 0 1 1 1 0 0 0 2 3 4 5 5 4 4 5 6
Wind_Direction
147 150 142 138 135 131 128 125 121 118 116 115 113 112 111 110 109 109 108 108 106 103 102 99 97 95 94 93 92 91 90 92 97 104 109 113 117 119 119 119 118 117 117
143 143 136 135 135 133 131 129 127 125 124 122 121 120 119 118 117 116 115 113 110 108 105 103 100 97 96 94 91 88 86 85 90 99 107 110 113 117 120 118 118 121 120
133 133 131 132 134 134 133 132 132 130 128 127 126 126 125 124 123 122 121 118 116 113 110 108 104 101 99 94 90 86 80 74 80 97 103 106 111 116 121 121 121 122 121
128 127 127 127 130 132 132 132 132 131 130 129 130 130 130 129 129 127 125 124 121 118 116 114 110 106 102 96 86 78 70 61 63 100 120 117 116 121 123 123 123 123 123
122 124 127 125 127 129 129 128 129 130 131 131 132 133 133 133 133 131 130 130 128 126 125 122 118 114 108 99 86 71 57 48 54 95 122 122 122 128 127 127 126 126 126
122 125 128 127 127 127 127 127 127 128 130 132 133 134 136 137 137 137 136 136 136 135 135 133 130 127 120 107 87 63 44 38 61 112 123 127 130 133 133 132 130 130 129
129 129 131 130 128 128 127 127 128 129 131 133 135 137 139 141 142 143 145 146 147 148 147 147 145 146 144 132 99 53 36 37 80 126 133 136 137 138 139 137 136 136 134
135 133 133 132 131 130 130 130 131 132 134 136 139 141 143 146 149 152 156 158 161 162 164 166 165 165 171 178 189 3 24 46 81 131 147 149 147 145 145 144 142 142 141
135 134 134 135 134 134 135 135 136 137 138 140 142 145 149 156 164 171 176 176 176 177 177 178 182 185 191 201 221 257 306 28 89 130 158 160 158 154 153 152 151 150 148
137 140 138 137 137 138 139 141 141 141 142 142 145 149 157 169 183 191 196 196 194 191 189 191 196 198 204 212 226 247 266 291 117 154 174 176 171 165 162 162 160 159 157
142 144 141 140 143 143 144 144 143 142 142 141 139 141 142 157 191 207 206 204 206 205 204 204 204 205 210 219 229 245 257 254 197 179 187 191 183 175 171 170 169 168 167
148 149 147 144 146 150 146 139 140 133 126 121 117 106 92 78 69 83 192 200 207 212 216 217 216 217 217 225 237 246 248 247 239 209 199 202 194 185 178 177 176 176 176
147 143 142 140 140 135 123 130 125 117 110 103 98 90 78 65 53 50 56 55 228 225 224 233 231 218 209 215 232 241 239 237 232 224 215 205 201 194 187 184 182 182 184
133 124 121 122 120 118 120 118 114 110 102 91 82 81 78 67 53 47 42 35 25 317 222 223 219 222 226 225 226 233 237 234 223 224 225 207 203 199 195 192 190 188 190
125 120 118 118 115 113 108 112 108 108 106 100 88 80 78 70 52 37 33 34 22 16 10 319 233 235 228 236 240 238 241 247 229 219 216 206 205 205 203 200 198 196 196
128 127 122 116 116 112 110 110 111 111 107 101 94 88 79 71 60 43 31 25 18 8 7 16 10 314 305 288 286 270 252 256 250 224 212 207 207 211 212 210 206 204 203
135 131 128 122 116 112 112 112 114 114 112 109 101 88 77 70 64 51 35 19 8 16 29 35 32 40 28 17 342 313 284 269 263 247 221 211 212 218 217 215 213 211 210
140 138 134 128 120 116 115 113 113 112 114 118 107 93 80 74 66 53 41 19 20 32 36 42 42 44 31 21 346 318 309 297 282 269 243 225 217 221 223 223 220 218 217
144 138 130 128 128 124 118 112 107 107 115 126 116 104 93 80 65 61 52 32 35 39 32 37 46 47 24 356 323 316 320 301 281 280 264 242 227 223 223 227 228 226 223
138 138 139 137 135 127 114 99 88 88 106 133 130 124 109 90 74 70 61 43 43 40 28 27 35 31 24 349 335 337 311 297 292 275 267 259 240 230 226 227 229 232 230
141 144 149 146 149 136 124 120 119 127 138 148 153 137 122 104 91 83 72 51 46 46 32 25 31 25 11 5 21 347 332 332 330 312 291 273 260 247 231 224 224 225 232
159 159 161 163 162 156 151 153 157 151 153 155 151 144 139 126 118 109 95 76 57 49 37 36 45 38 9 24 43 30 353 344 343 354 360 8 328 288 242 226 219 221 225
172 174 174 176 172 169 158 130 98 77 69 75 106 156 173 159 146 131 121 105 78 71 58 54 58 64 24 2 39 87 73 315 314 328 354 10 3 353 320 290 243 233 230
188 185 180 180 178 174 159 146 143 141 143 168 172 185 207 190 176 157 144 127 108 92 81 67 75 74 71 21 5 34 142 193 296 323 328 348 354 357 350 340 318 284 251
192 189 187 182 181 177 166 156 144 141 152 153 140 153 211 260 217 180 162 148 137 124 125 102 79 62 87 103 20 359 11 26 69 108 315 330 338 335 337 325 321 312 284
194 191 185 180 184 180 170 163 157 156 158 153 158 177 238 285 239 184 168 162 163 159 161 165 155 113 155 197 211 169 138 103 336 90 272 304 311 309 318 322 326 320 302
Height
1539 1541 1544 1545 1547 1548 1549 1550 1551 1552 1553 1554 1554 1555 1556 1556 1557 1558 1558 1559 1560 1561 1561 1562 1562 1563 1563 1563 1563 1563 1563 1563 1563 1564 1564 1564 1565 1566 1567 1568 1569 1570 1571
1537 1541 1544 1546 1547 1549 1550 1551 1552 1553 1554 1554 1555 1556 1557 1557 1558 1558 1559 1560 1560 1561 1562 1563 1563 1563 1564 1564 1564 1564 1564 1565 1565 1565 1566 1567 1567 1568 1569 1569 1571 1571 1573
1537 1541 1544 1546 1548 1549 1551 1552 1552 1553 1554 1555 1556 1557 1557 1558 1558 1559 1560 1561 1561 1562 1563 1563 1564 1564 1565 1565 1565 1566 1566 1566 1566 1567 1568 1568 1569 1570 1570 1571 1572 1573 1574
1538 1541 1544 1547 1549 1550 1551 1552 1553 1554 1555 1555 1556 1557 1558 1558 1559 1559 1560 1561 1562 1563 1563 1564 1565 1565 1566 1566 1567 1567 1568 1568 1568 1568 1569 1570 1571 1571 1572 1573 1574 1575 1576
1539 1542 1545 1547 1549 1551 1552 1553 1554 1555 1555 1556 1557 1557 1558 1559 1559 1560 1561 1561 1562 1563 1564 1565 1565 1566 1567 1567 1568 1568 1569 1569 1569 1570 1570 1571 1572 1573 1574 1574 1575 1576 1577
1540 1543 1545 1548 1550 1551 1553 1554 1555 1555 1556 1557 1557 1558 1558 1559 1560 1560 1561 1562 1562 1563 1564 1565 1566 1567 1567 1568 1569 1569 1570 1570 1570 1571 1571 1572 1573 1574 1575 1576 1577 1578 1579
1540 1543 1546 1548 1550 1551 1553 1554 1555 1556 1557 1557 1558 1558 1559 1559 1560 1561 1561 1562 1563 1563 1564 1565 1566 1567 1568 1569 1569 1570 1571 1571 1571 1572 1573 1573 1574 1575 1576 1577 1578 1579 1580
1541 1544 1546 1548 1550 1552 1553 1555 1556 1556 1557 1558 1558 1559 1559 1560 1560 1561 1561 1562 1563 1563 1564 1565 1566 1567 1568 1569 1570 1571 1571 1572 1572 1573 1574 1575 1575 1576 1577 1578 1579 1580 1581
1542 1544 1546 1549 1551 1553 1554 1555 1556 1557 1557 1558 1558 1559 1559 1560 1560 1561 1561 1562 1562 1563 1564 1564 1565 1566 1567 1568 1570 1571 1572 1572 1573 1573 1574 1575 1576 1577 1578 1579 1580 1581 1582
1544 1545 1547 1549 1551 1553 1554 1556 1557 1557 1557 1558 1558 1559 1559 1559 1560 1560 1561 1561 1562 1562 1563 1564 1564 1565 1567 1568 1569 1570 1571 1572 1573 1574 1575 1576 1577 1577 1578 1579 1580 1582 1583
1545 1546 1547 1549 1551 1553 1554 1556 1557 1557 1557 1558 1559 1559 1559 1559 1559 1560 1560 1560 1561 1561 1562 1563 1563 1564 1565 1566 1568 1569 1570 1572 1573 1573 1574 1576 1576 1577 1578 1580 1581 1582 1583
1545 1546 1547 1549 1551 1552 1554 1555 1556 1557 1557 1558 1558 1559 1559 1558 1558 1558 1559 1559 1560 1560 1560 1561 1562 1562 1564 1565 1566 1567 1569 1570 1571 1572 1573 1574 1576 1577 1578 1579 1581 1582 1583
1544 1545 1547 1549 1551 1553 1554 1555 1556 1557 1557 1557 1558 1558 1558 1557 1557 1557 1557 1557 1558 1558 1559 1559 1560 1561 1562 1563 1564 1565 1567 1568 1569 1570 1572 1573 1574 1576 1578 1579 1580 1581 1582
1543 1545 1547 1549 1551 1552 1554 1555 1556 1557 1557 1557 1557 1557 1557 1556 1556 1556 1555 1556 1556 1556 1557 1557 1558 1559 1560 1561 1562 1564 1565 1566 1567 1568 1569 1571 1572 1574 1576 1577 1578 1580 1582
1543 1545 1547 1549 1551 1552 1554 1555 1556 1556 1556 1556 1556 1556 1555 1555 1554 1554 1554 1553 1554 1554 1555 1555 1556 1557 1558 1559 1560 1561 1562 1564 1565 1566 1567 1568 1569 1571 1574 1575 1577 1578 1580
1543 1545 1547 1549 1551 1552 1554 1555 1555 1556 1556 1556 1556 1555 1554 1553 1552 1552 1552 1552 1552 1552 1553 1553 1554 1555 1556 1556 1558 1559 1560 1561 1562 1563 1564 1566 1567 1568 1570 1573 1575 1576 1578
1543 1545 1547 1549 1551 1553 1554 1555 1555 1556 1556 1556 1555 1554 1553 1551 1551 1550 1550 1550 1551 1551 1552 1552 1553 1553 1554 1554 1555 1556 1557 1558 1559 1561 1562 1562 1564 1566 1567 1569 1571 1573 1575
1543 1545 1547 1549 1551 1553 1554 1555 1555 1555 1555 1555 1554 1553 1552 1550 1549 1549 1549 1549 1549 1550 1550 1551 1551 1552 1552 1553 1553 1554 1555 1555 1556 1557 1558 1559 1560 1562 1564 1566 1568 1569 1571
1542 1545 1547 1549 1551 1553 1554 1554 1555 1555 1555 1554 1554 1553 1551 1550 1549 1548 1548 1548 1548 1549 1549 1549 1550 1550 1550 1551 1551 1552 1552 1553 1553 1554 1555 1556 1557 1559 1560 1562 1564 1566 1567
1542 1545 1547 1549 1551 1552 1553 1554 1554 1554 1554 1554 1553 1552 1551 1550 1549 1548 1547 1547 1547 1548 1548 1548 1548 1549 1549 1549 1549 1549 1550 1550 1551 1551 1552 1553 1554 1555 1557 1558 1560 1561 1563
1542 1544 1546 1549 1551 1551 1552 1553 1554 1553 1553 1553 1552 1552 1551 1549 1548 1548 1547 1547 1546 1546 1547 1547 1547 1547 1547 1547 1547 1548 1548 1548 1549 1549 1549 1550 1551 1552 1553 1555 1556 1558 1559
1542 1544 1546 1549 1550 1551 1552 1553 1553 1553 1552 1552 1551 1551 1550 1549 1548 1547 1546 1546 1546 1546 1546 1546 1546 1546 1546 1546 1546 1546 1546 1548 1547 1547 1547 1547 1548 1549 1550 1551 1553 1554 1555
1541 1543 1545 1547 1549 1550 1551 1551 1552 1552 1551 1551 1551 1550 1550 1549 1548 1548 1547 1546 1545 1545 1545 1545 1545 1545 1545 1546 1546 1546 1546 1546 1546 1546 1546 1546 1546 1547 1548 1549 1550 1551 1551
1539 1542 1544 1546 1547 1549 1549 1550 1550 1550 1550 1550 1549 1549 1549 1548 1548 1547 1547 1546 1546 1545 1545 1545 1544 1544 1544 1545 1545 1546 1546 1546 1546 1545 1545 1545 1545 1545 1545 1546 1547 1547 1548
1538 1540 1542 1544 1546 1547 1548 1548 1548 1548 1548 1548 1548 1547 1547 1547 1547 1547 1546 1546 1546 1545 1545 1544 1544 1543 1543 1543 1543 1544 1544 1545 1545 1544 1543 1543 1543 1543 1543 1544 1544 1544 1545
1536 1538 1541 1542 1544 1545 1546 1546 1546 1546 1546 1546 1546 1545 1545 1545 1545 1545 1545 1545 1545 1545 1544 1543 1543 1542 1542 1542 1542 1542 1542 1542 1542 1542 1542 1541 1540 1541 1541 1541 1542 1542 1542